Location: Mississauga
(43.5802°N, 79.6166°W)
Time: 23:55:09
(UTC-04:00)

Cosmos 1437 Rocket - Visible Passes

Search period start: 27 April 2015 00:00
Search period end: 07 May 2015 00:00
Orbit: 520 x 564 km, 81.2° (Epoch: 26 April)

Date Brightness Start Highest point End Pass type
(mag) Time Alt. Az. Time Alt. Az. Time Alt. Az.
27 Apr 5.4 00:37:09 18° NNW 00:37:09 18° NNW 00:38:38 10° NNW visible
27 Apr 5.1 22:54:27 14° NE 22:54:27 14° NE 22:55:17 10° NE visible
28 Apr 5.3 00:29:58 19° NW 00:29:58 19° NW 00:31:41 10° NNW visible
28 Apr 4.9 22:47:14 16° NE 22:47:14 16° NE 22:48:23 10° NE visible
29 Apr 5.2 00:22:45 20° NW 00:22:45 20° NW 00:24:43 10° NNW visible
29 Apr 4.7 22:39:59 19° NE 22:39:59 19° NE 22:41:31 10° NE visible
30 Apr 5.1 00:15:30 21° NW 00:15:30 21° NW 00:17:45 10° NNW visible
30 Apr 4.4 22:32:42 21° ENE 22:32:42 21° ENE 22:34:37 10° NE visible
01 May 5.0 00:08:13 21° WNW 00:08:13 21° WNW 00:10:46 10° NNW visible
01 May 4.1 22:25:22 24° ENE 22:25:22 24° ENE 22:27:43 10° NNE visible
02 May 4.9 00:00:53 21° WNW 00:00:53 21° WNW 00:03:47 10° NNW visible
02 May 3.9 22:18:00 27° ENE 22:18:00 27° ENE 22:20:49 10° NNE visible
02 May 4.9 23:53:30 20° WNW 23:53:56 20° WNW 23:56:48 10° NNW visible
03 May 3.6 22:10:34 30° E 22:10:34 30° E 22:13:54 10° NNE visible
03 May 5.0 23:46:03 18° W 23:47:00 19° WNW 23:49:48 10° NNW visible
04 May 3.5 22:03:04 30° ESE 22:03:31 31° E 22:06:59 10° NNE visible
04 May 5.1 23:38:34 15° W 23:40:04 19° WNW 23:42:48 10° NNW visible
05 May 3.5 21:55:29 27° SE 21:56:33 32° E 22:00:03 10° NNE visible
05 May 5.3 23:30:59 12° WSW 23:33:08 18° WNW 23:35:47 10° NNW visible
06 May 3.4 21:47:51 22° SE 21:49:36 33° E 21:53:07 10° NNE visible
06 May 5.4 23:23:31 10° WSW 23:26:11 17° WNW 23:28:46 10° NNW visible
